Starlink 30279

operational
NORAD ID: 57885 Int'l Des: 2023-144 Owner: SPXS Country: US Constellation: starlink
LEOCIRCULAR

关于 Starlink 30279

正在加载描述...

实时位置

正在加载3D地球...

即将过境

高度历史

Altitude vs Time

uPlot chart will show altitude changes over time

两行轨道根数

1 57885U 23144X 26035.18472143 -.00003558 00000-0 -24834-3 0 9990
2 57885 43.0008 109.2713 0001230 178.3158 181.7689 15.02553604132515
Epoch: Feb 4, 2026 • Age: 15 hours

当前状态

高度 557.3 km
速度 7.59 km/s
星下点 14.60°N, 157.65°W
发射日期 Sep 16, 2023
运行时间 2.3 years
类型 internet

技术详情

分类 Payload
质量 730.00 kg
干质量 700.00 kg
总质量 730.00 kg
长度 0.30 m
直径 4.10 m
跨度 29.00 m
形状 Box + pan
制造商 SPXS
平台类型 Starlink V2M
阶段状态 In Orbit
所有者/国家 SPXS/US

大型星座

Loading constellations...